Theta_e
291 292 291 292 292 292 292 292 292 292 294 294 292 293 296 296 292 289 296 299 298 301 303 312 316 319 321 322 323 323 323 325 326 329 330 331 332 332 334 335 337 337 338 340 342 343 344 345 345 345 347 349 351 351 353 355 358 360 362 361 361 360 359 358 356 356 356 355 355 354 354 354 354 354 355 357 358 357 357 355 354 353 354 354 352 353 356
290 291 291 292 291 291 291 291 292 293 294 293 294 294 296 296 295 298 298 299 301 304 313 316 318 322 323 323 324 324 324 327 330 332 332 333 334 335 337 339 342 344 345 341 342 343 344 344 343 344 346 348 350 351 353 355 357 360 362 361 360 360 359 358 357 357 356 355 355 354 354 353 354 355 355 356 357 356 356 355 353 353 353 354 354 353 354
288 291 293 292 292 291 290 291 292 293 294 294 295 295 296 298 297 298 300 301 302 311 317 319 323 322 322 322 324 325 326 329 331 331 333 335 335 336 338 341 342 343 343 342 342 342 342 345 346 343 352 350 352 354 355 356 357 360 361 361 361 360 359 359 358 357 356 355 354 354 354 354 354 355 355 356 356 356 356 355 354 352 352 352 354 355 355
285 290 290 291 292 291 290 290 291 292 292 291 294 294 297 296 295 297 298 298 300 312 320 321 322 320 319 320 322 323 324 327 329 330 332 333 335 337 338 339 341 343 344 343 341 342 347 349 347 346 341 343 349 354 356 356 357 359 361 361 360 360 360 360 358 357 356 355 354 354 355 354 354 355 355 355 355 356 356 355 355 353 351 352 353 354 356
284 289 291 290 290 289 286 287 290 292 293 294 296 297 298 298 298 295 294 297 304 306 318 319 319 319 321 319 318 319 321 322 324 327 330 332 334 335 336 339 340 343 344 346 348 348 348 348 347 347 349 348 344 343 351 357 359 358 359 360 360 360 360 359 358 357 356 355 354 354 355 355 355 355 355 355 354 355 356 356 356 354 351 352 353 354 355
284 288 289 290 286 279 281 293 296 295 293 294 293 295 297 299 299 297 301 304 309 314 316 317 317 318 319 317 317 319 319 320 321 324 326 329 332 334 335 337 339 341 344 345 345 351 351 351 347 346 346 347 347 348 345 346 355 358 358 359 360 360 360 359 359 358 357 356 355 355 356 356 355 355 355 355 354 355 357 357 355 354 353 351 353 353 354
283 288 288 284 278 280 292 296 297 298 297 296 300 300 302 308 304 308 311 310 311 315 315 317 319 320 319 318 315 316 318 320 320 321 322 323 326 329 331 333 335 338 340 344 346 347 350 352 357 352 346 345 347 349 349 349 353 357 357 358 359 359 359 359 359 359 358 357 356 356 356 356 356 355 354 355 355 355 356 356 355 354 353 351 352 354 355
289 285 283 276 279 291 295 295 297 299 298 301 304 302 305 309 309 309 309 310 312 313 314 316 318 319 320 317 317 316 318 320 320 320 320 322 323 324 328 330 332 334 337 340 343 346 350 351 351 359 355 352 348 347 351 355 356 356 357 358 358 359 359 359 359 359 359 357 357 356 356 357 356 355 355 355 355 355 355 357 357 356 355 353 352 353 355
280 284 283 283 290 289 291 292 294 295 299 301 301 294 300 307 308 307 308 309 310 311 313 315 316 318 318 315 313 315 317 319 320 321 321 322 323 325 327 330 332 335 337 338 340 344 345 348 349 350 352 354 354 348 352 356 357 357 356 357 358 359 359 360 360 361 360 358 357 356 356 356 356 356 355 355 356 357 355 355 356 355 354 354 353 353 353
289 282 281 283 282 279 285 294 300 305 306 308 307 302 298 306 308 308 308 308 309 310 312 313 315 319 316 308 308 313 316 318 319 320 321 322 323 324 327 329 332 333 335 337 340 342 344 347 350 352 353 353 353 353 351 352 355 356 356 356 358 359 359 361 361 361 361 360 358 357 356 356 357 357 357 356 356 358 356 354 355 356 356 355 355 354 352
287 284 280 280 278 283 295 300 305 305 306 306 306 299 291 305 307 307 308 307 308 309 309 311 314 311 306 305 308 312 315 317 318 318 319 320 322 323 325 327 329 331 333 337 340 342 343 345 348 352 353 354 354 353 353 353 355 355 355 355 358 359 359 361 362 362 362 361 360 359 357 357 358 358 357 357 357 358 358 355 354 357 357 356 355 355 354
287 285 282 280 285 282 296 302 303 305 307 305 299 287 288 301 306 307 307 306 307 307 309 310 310 307 303 305 309 314 315 316 317 317 318 319 321 322 324 326 328 331 335 336 338 339 341 343 347 349 351 352 353 354 354 353 352 354 356 356 358 361 361 362 363 363 363 362 361 360 359 358 358 359 359 358 357 357 357 357 354 355 357 357 355 355 356
287 286 284 286 287 294 300 300 301 303 306 300 285 282 296 304 306 307 306 306 307 307 307 308 305 308 310 313 315 314 315 315 315 317 319 319 320 321 322 324 329 329 331 334 335 338 340 343 346 348 351 352 352 353 354 353 352 353 357 357 358 361 362 362 363 363 364 363 362 362 361 360 360 360 360 359 358 357 356 357 355 354 356 357 357 356 356
284 285 283 283 288 296 299 301 301 305 301 287 283 298 304 305 305 306 307 306 307 307 306 306 306 308 311 315 315 315 315 313 314 316 317 318 319 322 324 326 326 327 329 332 335 338 340 343 347 350 352 352 351 352 352 351 352 355 357 357 358 362 361 361 362 364 364 365 365 364 364 362 360 359 361 360 359 357 357 356 354 353 354 356 356 356 357
289 286 283 282 279 294 301 300 300 304 294 296 301 303 306 308 306 306 306 306 307 308 306 308 308 308 310 312 312 314 314 313 313 314 316 317 317 318 319 321 324 327 326 330 334 337 339 342 347 351 354 354 354 353 351 352 354 355 356 357 358 362 362 361 362 363 364 364 364 366 365 364 362 360 361 360 359 358 356 355 354 353 354 356 356 356 356
283 283 282 283 291 295 303 300 292 298 301 304 306 306 304 307 306 305 304 306 307 308 307 307 308 308 309 310 311 311 314 313 313 315 316 316 317 318 320 322 324 327 327 331 334 336 338 342 347 351 354 356 357 354 353 354 354 355 357 357 358 361 361 361 362 363 364 365 366 366 365 365 364 362 361 361 360 358 357 355 354 352 353 354 355 355 355
288 286 289 294 297 300 302 304 302 303 305 307 306 305 306 305 306 307 305 305 307 307 308 308 308 307 309 309 311 310 313 313 313 314 315 316 317 318 319 322 325 326 327 331 333 334 336 340 345 351 357 358 359 358 359 356 353 356 357 357 357 359 361 361 361 362 364 364 365 365 365 366 364 363 362 362 360 359 358 356 354 353 352 352 352 353 353
296 297 297 299 298 299 300 301 305 305 306 307 308 306 304 307 307 307 306 307 307 307 308 306 307 308 308 309 311 311 312 314 315 316 316 316 318 319 321 322 324 326 329 331 331 331 333 338 343 349 354 358 358 359 362 360 358 358 358 357 356 358 360 361 361 362 362 363 364 364 365 366 366 365 364 363 361 360 359 356 355 354 352 351 351 351 351
290 286 299 297 295 298 299 299 304 307 307 308 309 308 307 307 308 307 308 308 308 308 308 307 306 307 309 309 310 312 312 313 314 315 315 316 318 319 320 322 325 326 329 328 329 330 331 336 342 345 346 351 353 355 357 364 362 360 358 357 356 358 360 361 361 362 362 362 363 364 364 365 366 366 365 365 363 360 359 358 356 355 353 351 351 349 349
289 289 294 296 297 298 300 301 299 299 302 304 306 307 307 307 308 309 308 309 308 309 308 308 307 308 309 309 309 310 311 312 314 314 315 315 317 320 322 323 325 325 327 327 327 328 330 335 338 340 342 343 345 346 349 358 363 361 358 357 357 358 360 361 361 362 362 360 361 363 363 364 364 365 365 366 364 361 360 359 357 355 354 352 351 350 349
291 294 297 295 296 297 300 299 300 300 301 301 303 304 305 306 306 307 309 310 308 308 308 309 309 307 308 309 310 311 311 313 313 314 315 316 318 320 321 322 324 322 325 327 327 327 329 331 332 335 339 341 343 343 345 353 360 360 359 357 358 359 361 361 361 360 362 362 362 363 363 363 364 366 365 366 364 363 365 364 362 358 356 355 354 354 352
287 288 290 294 288 289 293 296 298 300 301 302 302 303 303 304 305 307 307 309 310 310 310 310 309 308 308 310 311 312 312 313 314 313 314 316 318 321 322 322 322 322 325 327 326 325 326 327 329 331 334 337 340 342 344 350 355 356 359 359 358 359 360 361 361 359 360 361 362 362 363 362 362 340 316 304 314 356 363 351 341 336 336 355 357 357 355
286 293 295 297 296 294 295 297 299 301 302 302 302 302 303 304 306 307 307 307 308 308 310 312 311 309 310 311 312 312 313 314 315 315 315 316 318 321 322 320 321 321 325 325 325 324 324 326 326 328 331 334 337 340 342 348 350 352 354 357 359 359 359 359 357 359 359 360 360 361 361 360 355 347 339 331 305 298 304 325 333 326 323 328 332 337 353
296 298 298 299 297 294 296 299 301 302 304 303 303 304 305 305 306 307 308 308 308 308 310 311 312 311 311 312 312 311 312 314 315 315 316 318 320 322 322 319 321 322 324 321 322 322 323 324 324 326 329 333 334 337 341 348 348 349 352 353 351 347 350 349 344 341 346 349 349 355 359 357 349 346 346 341 333 309 299 301 306 308 313 319 319 322 328
294 299 300 300 300 300 302 303 303 303 304 305 303 303 304 305 306 308 308 309 310 310 309 310 312 313 312 312 312 312 312 313 316 318 320 321 320 320 320 320 320 323 322 320 321 322 322 323 323 324 326 331 333 334 337 345 346 346 348 349 345 343 341 341 343 343 345 345 342 344 346 344 345 346 348 345 342 333 325 303 298 300 301 304 312 317 319
300 301 302 302 302 302 302 301 301 302 303 304 304 305 306 309 308 309 309 310 310 311 311 311 312 312 312 312 312 312 312 313 316 319 319 321 318 318 317 319 321 324 321 320 321 321 321 322 322 323 324 328 331 333 335 344 342 341 343 345 342 341 341 341 342 343 344 343 344 345 344 343 343 342 343 343 344 337 335 337 337 321 306 299 299 307 307
303 304 302 300 298 299 301 298 298 303 304 305 305 305 306 306 309 311 310 311 312 312 312 313 313 313 313 313 314 314 312 313 314 316 318 320 318 319 320 321 322 324 322 320 319 321 322 322 321 321 322 324 329 332 334 341 341 338 337 340 344 348 352 352 343 344 344 345 344 344 343 343 343 342 341 341 341 340 343 343 343 342 338 328 307 298 311
303 303 302 295 294 296 299 302 303 304 305 305 305 305 307 308 308 308 309 310 310 312 312 314 313 312 312 313 313 313 313 312 312 314 318 318 320 321 321 321 323 323 320 320 319 319 320 319 319 319 321 323 327 330 332 337 338 338 336 335 336 338 341 348 348 346 346 344 344 343 342 344 345 343 344 343 341 341 340 345 345 339 331 324 321 311 302
302 303 304 303 303 303 303 303 303 303 303 304 306 306 307 304 304 305 306 308 309 311 310 312 314 314 312 312 313 313 312 311 312 314 315 318 321 321 321 322 323 322 320 319 317 317 317 317 317 318 319 322 325 328 331 335 333 335 334 332 330 333 337 343 346 346 346 345 344 343 341 340 342 344 344 343 342 342 342 343 339 336 331 327 330 331 324
302 303 303 303 303 303 301 299 299 301 302 303 304 304 305 303 302 303 304 306 308 309 310 312 312 313 314 313 313 313 313 313 315 316 317 317 317 319 320 321 322 320 318 316 315 316 315 315 316 316 318 321 324 325 327 333 331 332 333 331 328 326 329 336 342 346 347 346 344 339 341 345 344 342 342 344 343 344 343 341 337 335 335 337 337 339 334
303 303 303 303 303 302 300 299 300 301 301 302 303 302 302 303 301 302 303 306 308 310 312 312 312 314 314 314 314 314 316 318 317 316 315 314 316 318 319 318 318 315 313 314 315 315 315 315 315 316 318 320 322 323 324 329 331 328 329 330 329 322 320 323 327 336 339 339 339 341 343 342 339 339 340 343 343 341 340 338 338 339 340 340 336 331 328
302 302 302 301 301 301 300 300 299 299 300 302 302 300 300 301 300 301 303 305 306 309 311 312 311 313 314 313 314 315 317 317 316 315 313 312 314 315 316 316 317 317 314 313 314 315 314 314 314 316 318 319 322 322 322 323 330 326 325 327 327 326 322 320 326 326 330 334 336 338 339 339 338 339 340 341 341 341 341 340 339 337 335 332 331 331 331
300 299 298 299 300 300 299 299 299 298 300 300 301 302 302 302 303 303 304 305 306 308 309 310 312 312 313 314 315 315 315 316 315 313 312 312 312 313 313 315 314 316 314 313 313 314 313 313 314 317 317 319 321 321 321 321 328 326 324 323 323 323 325 319 320 324 327 328 329 330 334 336 336 335 336 337 339 341 340 336 332 330 329 329 328 328 328
300 299 300 301 300 298 298 299 301 300 301 302 303 303 302 302 302 303 304 305 305 306 307 310 312 313 313 314 314 315 316 315 312 311 311 311 311 311 311 312 313 313 313 313 312 312 312 313 315 316 317 318 319 319 320 320 325 324 322 322 321 320 320 319 319 321 322 322 322 324 325 326 328 329 330 331 333 332 330 328 326 325 325 324 323 319 310
305 304 304 303 303 302 303 302 301 301 301 300 301 302 302 302 303 302 305 304 303 305 308 311 311 311 311 311 311 311 312 312 311 311 310 310 310 310 310 310 310 310 310 310 310 310 312 314 316 316 316 316 317 317 318 320 322 322 322 321 321 320 319 321 318 318 318 319 319 319 319 318 318 321 324 325 325 325 325 325 325 324 323 322 322 322 318
304 304 303 303 303 304 303 303 303 303 303 302 302 302 302 302 302 302 302 303 305 306 307 309 309 309 308 307 307 307 308 310 311 310 309 309 309 309 308 308 307 308 308 308 309 310 312 314 318 317 316 315 314 315 317 319 320 320 322 320 319 318 319 318 317 317 317 316 315 316 316 317 317 316 316 317 318 318 318 318 318 318 319 319 320 319 319
306 304 303 303 304 303 303 303 303 304 303 303 303 303 302 302 302 303 304 304 304 305 306 307 308 307 306 306 307 307 307 307 309 310 308 308 308 307 306 306 306 306 307 305 307 310 311 314 316 316 313 313 314 313 316 319 318 317 318 317 317 317 316 315 315 314 313 314 313 313 314 314 313 313 314 313 312 313 314 314 315 315 315 315 315 314 313
306 305 305 304 304 303 303 304 305 305 305 304 304 304 304 303 303 303 303 303 304 305 306 306 306 307 307 307 306 305 305 306 306 308 308 307 307 305 305 305 305 306 305 305 308 310 311 314 314 313 311 311 311 313 314 316 318 314 314 314 315 315 314 313 313 313 312 312 312 311 310 310 310 310 311 311 311 311 311 311 312 312 312 312 313 313 312
304 306 305 306 306 304 304 304 304 304 304 303 303 304 304 305 304 304 302 302 304 306 305 304 305 305 306 305 304 304 304 305 306 305 305 306 306 304 303 304 305 306 307 309 308 309 311 312 311 310 310 310 311 311 313 314 315 312 311 312 312 313 312 312 311 312 312 311 311 310 309 309 309 309 308 308 309 309 309 309 309 309 309 309 309 309 310
304 305 305 304 303 304 303 303 303 303 304 304 303 302 304 304 303 303 302 302 303 306 304 304 303 303 303 304 304 304 304 305 305 305 304 304 305 304 303 304 305 306 308 309 307 307 309 310 310 308 309 309 310 309 311 312 312 311 310 309 309 309 310 310 309 309 309 309 309 310 308 308 308 308 308 307 307 307 307 307 307 307 306 306 305 305 306
304 305 304 304 303 304 303 303 303 303 304 304 304 304 304 303 303 302 302 302 303 304 304 304 303 303 303 303 303 304 306 305 304 304 304 304 303 302 301 300 304 306 306 305 306 306 308 308 309 307 307 308 309 310 309 310 308 308 308 308 307 307 307 307 307 306 306 306 307 306 306 306 306 305 306 305 305 305 305 305 305 305 304 304 304 304 304
304 304 304 304 303 303 304 304 304 302 302 303 305 305 304 304 303 302 303 303 304 304 303 304 305 304 303 303 304 304 304 305 303 303 303 302 302 301 300 301 305 305 307 307 306 306 305 305 307 309 307 307 308 309 309 307 306 306 306 306 306 307 306 306 305 305 305 305 305 304 305 304 303 303 304 303 303 303 302 302 302 302 303 303 303 303 303
304 304 304 304 304 304 303 303 303 302 302 303 305 305 304 304 303 303 303 303 303 303 303 303 304 304 303 302 302 301 302 303 304 303 302 302 303 303 302 302 304 306 307 307 305 304 304 305 306 307 309 308 307 308 307 304 304 304 304 305 306 305 305 305 304 305 304 304 303 303 302 302 302 301 302 301 301 302 302 301 301 301 301 302 302 302 302
304 304 304 304 303 304 303 303 303 303 302 302 305 305 304 304 304 303 303 303 303 304 303 303 303 303 303 302 301 300 300 301 301 302 301 301 301 303 304 304 304 306 307 306 304 304 304 305 305 306 308 308 307 306 305 303 303 303 303 303 303 303 303 303 303 303 303 303 303 302 302 303 302 301 301 301 301 301 301 301 301 301 301 301 301 302 302
304 305 305 304 305 304 302 303 303 302 302 304 304 304 305 303 303 304 303 303 303 303 304 303 303 303 303 303 300 300 300 301 301 300 299 299 298 299 303 305 304 304 305 305 304 303 303 304 305 307 306 306 306 306 303 303 302 302 302 302 302 302 302 302 302 302 302 302 302 302 302 301 301 301 301 301 302 300 301 301 301 301 301 300 301 300 300
304 305 305 304 304 304 303 304 304 305 304 303 302 303 305 305 304 304 303 303 302 303 303 303 303 303 303 303 304 302 301 300 300 301 301 300 299 300 303 304 303 304 303 304 302 302 302 306 304 304 305 305 305 302 302 303 302 301 301 300 300 300 300 300 301 301 302 302 302 301 300 300 301 301 301 301 301 301 301 302 301 300 300 300 300 301 301
305 305 306 304 305 305 305 305 306 304 303 303 301 301 303 304 305 303 303 303 303 303 303 304 304 304 304 303 302 301 301 300 299 301 300 301 302 302 303 303 304 302 302 301 301 301 302 302 303 303 303 304 304 301 301 301 301 301 300 300 300 299 300 299 299 299 300 300 301 302 302 301 300 300 301 301 300 300 300 300 300 300 301 302 301 302 301
304 304 304 304 304 304 304 304 305 303 302 301 302 302 303 304 304 304 304 303 303 303 303 303 304 304 305 304 303 303 303 301 298 299 302 301 301 301 301 300 301 302 301 301 302 302 303 303 303 303 303 303 301 300 300 300 301 300 300 300 300 299 299 299 299 299 299 299 299 299 299 299 299 300 300 299 299 300 299 299 299 299 299 299 299 299 299
304 304 304 305 304 303 302 303 304 303 301 302 303 303 303 303 304 303 303 302 302 302 302 303 303 303 304 306 305 304 305 305 302 300 303 303 301 301 301 302 303 302 300 299 298 299 301 301 302 302 302 302 299 299 299 299 300 301 300 300 300 300 300 300 300 300 300 300 300 299 299 299 298 298 298 299 299 299 300 299 299 299 299 299 299 300 300
304 304 304 304 304 302 303 302 302 304 306 302 302 305 303 302 300 300 302 301 302 303 301 301 302 303 302 303 303 305 305 305 305 304 304 303 302 302 302 302 301 302 301 299 299 298 301 301 301 301 300 299 299 300 299 299 299 299 299 300 300 299 300 301 301 300 300 300 300 300 300 299 298 299 300 299 299 299 299 299 299 300 300 300 301 300 300
303 304 303 304 306 305 305 305 304 305 305 304 303 304 303 301 301 302 301 301 301 301 300 301 301 302 303 303 304 304 305 305 304 304 303 302 302 303 302 302 301 301 300 300 299 298 297 297 297 299 298 298 298 299 300 299 299 299 299 298 299 299 298 299 299 299 299 300 299 299 299 299 299 298 298 298 298 299 299 299 299 299 299 299 299 299 299
303 303 305 306 305 306 305 305 306 305 305 305 304 303 301 301 301 300 301 303 301 300 300 299 299 301 303 303 303 302 302 302 303 301 303 303 301 300 302 302 301 301 299 298 298 298 298 299 300 300 299 297 297 297 299 300 299 298 298 299 298 298 298 298 298 297 298 298 298 298 298 298 298 298 299 299 299 299 298 298 298 298 298 297 297 297 297
Wind_Speed
12 12 14 15 15 14 15 18 16 16 14 12 11 8 8 7 3 8 11 13 11 12 17 8 12 11 10 14 14 14 14 17 17 21 28 24 12 7 8 5 2 9 18 17 18 18 18 19 18 17 16 15 15 16 15 15 16 17 17 17 17 17 17 17 17 16 15 15 15 15 15 15 15 15 15 14 14 13 13 14 12 13 13 14 13 13 12
13 14 14 13 15 15 15 16 14 14 15 13 11 10 10 12 10 9 11 11 11 12 6 9 9 9 12 11 10 15 19 18 16 20 20 18 16 16 16 17 20 18 11 6 2 4 8 14 17 15 14 15 17 17 17 17 16 16 16 17 17 17 17 17 15 15 15 15 15 15 15 16 15 15 15 14 13 14 14 14 13 12 12 13 14 14 13
9 12 12 11 13 13 16 16 15 13 14 15 13 13 11 12 14 9 8 9 8 6 2 4 4 7 14 15 18 17 15 17 16 16 17 16 17 16 14 15 17 13 9 8 8 10 11 12 9 3 2 11 16 15 16 16 16 15 16 16 17 16 16 16 15 14 14 15 15 15 15 15 14 14 14 14 13 14 14 14 14 12 11 14 14 13 14
8 10 12 12 13 14 16 17 15 12 11 11 11 8 5 6 9 10 13 9 5 4 6 6 10 13 15 17 18 17 16 17 17 18 18 17 16 16 16 15 17 18 13 6 8 8 6 4 6 7 9 14 11 10 13 14 15 14 14 16 17 16 15 15 15 16 15 15 15 15 15 15 15 14 13 14 13 13 14 15 13 12 11 13 14 13 12
8 10 12 14 14 13 13 11 11 12 9 10 13 14 12 12 11 9 8 7 6 7 7 12 14 15 14 18 17 15 17 16 16 16 16 16 15 15 14 14 15 14 12 10 6 5 4 3 6 9 7 6 4 13 15 8 12 12 13 15 16 15 15 16 16 15 15 16 16 15 15 15 14 14 13 14 14 13 15 14 13 14 12 10 13 13 13
7 12 14 11 10 9 8 6 9 8 10 8 11 11 11 9 8 7 7 11 15 16 10 12 8 9 9 12 15 16 14 14 15 16 17 17 17 15 15 14 13 11 9 12 11 6 3 3 4 4 5 8 8 9 6 15 11 12 11 12 14 15 14 16 16 15 15 16 17 16 15 14 14 15 14 14 14 12 12 12 14 14 14 12 11 13 13
5 8 11 9 9 9 8 14 14 14 14 14 9 7 11 13 11 9 12 11 12 11 9 8 7 6 12 15 18 18 18 16 15 16 17 18 17 16 16 16 15 12 10 8 11 12 10 9 1 4 5 6 6 7 10 13 17 13 11 11 13 14 15 16 16 16 16 16 16 16 15 15 15 16 16 14 13 12 11 13 14 14 14 13 11 12 13
1 3 4 7 9 7 10 13 13 15 14 5 9 7 8 12 11 9 10 9 8 9 12 12 8 6 7 12 14 17 16 15 15 15 15 17 16 17 15 15 14 14 13 12 13 12 12 11 7 4 2 7 11 15 14 15 16 14 13 11 13 15 15 16 17 17 17 16 16 15 15 15 15 16 16 15 14 12 11 11 12 12 12 12 12 12 12
3 3 4 8 11 16 16 11 9 5 3 4 4 1 2 9 11 11 8 10 11 10 12 12 12 9 2 9 11 17 16 15 14 15 15 16 16 16 15 14 14 13 13 14 12 10 10 11 12 8 4 6 4 6 10 14 14 14 14 13 13 16 16 17 17 17 17 17 16 16 16 16 16 16 16 15 14 11 12 12 12 13 13 13 12 12 11
5 4 5 3 3 8 9 6 6 9 9 4 4 3 2 8 10 11 10 10 10 10 11 12 14 8 3 7 8 12 15 15 15 13 13 14 15 15 15 15 15 15 14 14 14 12 11 9 9 9 8 8 8 8 5 5 7 12 14 15 13 14 16 17 17 17 17 17 17 16 16 17 17 15 15 14 14 12 13 13 13 13 13 12 12 12 13
1 2 5 4 5 8 2 4 7 12 12 10 7 4 3 3 8 10 9 9 9 10 11 11 11 9 5 5 6 8 11 13 13 14 13 13 14 14 15 15 16 16 15 14 13 12 12 11 9 9 9 10 10 10 9 6 6 10 14 15 14 15 16 15 15 16 16 16 16 17 17 17 16 16 16 15 14 12 12 12 11 11 11 12 11 11 12
5 4 5 7 4 4 6 10 13 13 12 13 6 5 2 5 8 8 7 9 10 9 10 9 9 10 7 7 8 8 11 11 12 13 16 16 16 15 15 14 15 14 13 13 13 13 14 14 13 13 13 11 11 11 11 10 8 11 14 16 15 12 11 13 14 15 15 17 17 17 17 16 14 14 13 13 14 14 13 11 11 10 11 12 13 12 12
7 10 7 6 7 3 8 11 15 15 12 6 3 7 2 2 6 5 6 8 9 9 9 8 6 5 4 5 6 10 12 12 12 12 13 13 13 15 16 16 16 14 14 13 13 14 12 13 13 12 12 12 12 11 11 11 12 13 15 15 12 11 12 13 14 16 14 15 17 16 15 14 13 12 12 14 14 14 14 12 12 11 12 12 13 12 11
6 4 7 8 5 2 7 12 15 10 6 3 5 3 2 5 3 3 5 7 7 6 7 7 6 9 10 7 7 10 11 11 9 11 12 14 14 13 13 15 15 14 14 15 15 14 12 14 13 12 11 13 14 13 12 12 14 13 12 12 11 11 13 14 14 15 15 14 15 14 14 13 13 13 13 13 13 14 13 13 14 13 11 11 12 12 11
2 3 4 3 6 1 9 13 9 7 5 4 4 7 9 6 6 3 4 4 4 4 4 6 7 8 11 8 7 8 9 9 10 10 12 13 15 16 17 16 15 15 14 15 15 16 14 14 14 13 15 16 16 14 14 15 14 11 9 11 12 12 12 14 14 14 14 15 14 12 13 14 14 14 12 13 13 13 14 14 14 14 13 11 12 11 11
2 1 3 3 0 4 4 6 3 4 4 9 11 9 9 8 7 4 4 3 4 5 4 4 7 9 10 10 6 6 7 8 8 8 9 11 13 14 15 15 16 18 15 15 16 16 15 14 14 14 13 14 13 13 16 15 13 9 9 11 12 12 13 14 14 14 14 15 14 13 14 13 13 13 13 13 12 12 13 13 12 13 12 11 11 12 12
1 3 3 6 9 6 4 3 5 7 7 7 8 13 12 9 7 7 6 4 4 3 5 5 4 6 7 11 7 7 5 6 7 9 10 12 13 13 14 15 16 16 16 17 17 17 15 17 16 14 13 12 13 15 15 13 12 9 10 12 13 13 13 14 14 13 13 13 14 13 13 13 13 13 14 13 13 12 13 13 13 13 13 12 11 11 12
4 10 13 6 3 6 9 8 4 3 5 6 7 8 11 9 8 7 8 9 5 4 3 4 4 5 5 8 7 4 4 5 6 7 9 13 14 13 13 15 17 16 15 16 16 18 18 17 16 14 14 13 14 15 17 14 10 10 11 12 13 15 14 13 14 14 14 13 13 14 13 12 13 12 13 13 13 12 12 13 13 13 13 12 12 11 11
5 4 3 3 7 8 8 9 3 1 0 3 5 7 9 10 10 10 9 11 10 7 5 3 3 4 6 6 6 3 3 3 6 8 9 10 11 14 14 14 16 13 14 15 16 19 20 17 15 16 16 15 14 15 18 14 9 10 12 13 14 13 14 13 13 13 14 12 12 13 13 12 11 11 12 12 13 12 12 13 13 13 12 12 13 12 12
6 7 7 7 10 11 8 2 6 8 8 8 9 8 9 11 11 10 10 10 11 8 7 5 4 5 5 5 4 3 1 3 4 6 9 9 10 12 13 15 15 15 14 15 16 18 17 16 16 16 14 14 13 16 15 17 8 10 11 13 14 14 15 13 12 13 13 15 14 11 12 12 12 12 12 13 13 14 14 14 14 13 13 14 14 14 13
7 11 3 10 12 8 3 9 10 8 8 9 10 11 13 13 12 11 10 10 10 10 9 6 6 7 6 7 5 5 0 1 2 5 6 9 10 8 12 14 15 15 14 15 16 17 17 16 17 17 17 14 15 15 15 13 13 7 10 12 13 14 13 12 12 12 11 11 12 11 11 11 11 11 12 13 12 11 12 12 14 15 15 15 15 14 13
6 3 5 9 8 7 10 11 11 13 12 11 11 11 11 12 12 10 11 12 11 11 10 7 6 7 7 8 7 7 5 1 1 1 5 8 10 9 9 9 12 15 15 14 15 16 15 16 16 17 17 16 14 14 13 12 11 9 9 5 11 11 11 11 11 11 10 10 11 11 11 10 9 2 10 10 4 7 12 16 16 15 12 12 12 10 11
4 5 8 6 6 10 11 11 12 12 12 11 12 11 11 11 11 11 11 13 12 10 9 7 6 6 7 8 8 6 7 5 2 2 3 6 9 11 10 11 13 15 14 15 15 16 16 16 17 16 16 16 15 14 13 11 9 8 6 7 5 6 10 10 11 11 11 10 9 9 8 9 9 9 5 4 12 11 9 6 11 14 12 13 13 14 13
7 6 5 5 7 8 9 12 13 12 10 10 11 12 12 12 12 11 12 12 12 10 9 10 7 6 7 7 5 5 6 6 5 4 3 4 7 9 9 10 12 13 13 16 15 16 15 16 16 17 16 15 15 14 14 11 10 7 5 4 4 5 4 4 6 7 6 5 4 4 5 6 6 8 10 8 1 11 11 6 4 7 5 5 11 17 17
4 2 4 6 7 8 8 9 9 9 9 9 9 11 11 12 13 12 12 12 11 11 10 10 9 7 6 5 4 4 4 5 6 2 5 6 8 9 10 12 13 12 11 11 12 13 14 16 17 17 16 15 15 15 13 10 10 7 6 3 3 2 5 6 6 2 4 9 10 7 3 6 7 4 10 10 9 4 6 8 7 9 9 7 3 5 12
6 4 4 6 4 4 6 8 6 8 11 11 11 10 12 14 14 14 12 11 11 11 11 10 10 7 5 4 4 3 4 5 5 2 4 3 5 8 11 12 12 9 10 10 11 12 13 16 16 16 15 16 16 15 14 10 9 9 7 4 4 3 3 2 4 4 2 2 7 8 8 9 7 2 8 5 5 9 7 4 5 8 13 14 12 10 11
6 5 5 5 3 5 4 7 8 11 10 10 11 12 13 13 15 11 10 10 10 10 11 10 7 5 4 4 5 5 5 4 4 2 1 3 6 6 7 9 11 10 10 9 11 12 15 15 15 15 14 16 16 16 15 11 9 9 9 7 3 3 5 7 4 4 4 4 2 3 5 8 7 8 7 3 5 4 8 9 7 7 4 5 10 12 8
3 3 2 0 3 5 8 9 9 9 9 10 11 12 12 11 9 9 9 9 9 8 9 6 4 4 4 4 4 6 5 4 4 2 2 2 4 5 6 8 9 7 8 9 10 13 12 13 15 14 14 16 16 15 15 14 11 9 9 8 6 4 3 3 6 5 5 5 5 6 8 7 8 8 8 8 6 4 5 4 6 6 4 4 3 6 13
5 5 4 3 3 2 3 6 8 9 11 11 11 10 10 12 11 9 9 10 11 9 5 4 4 4 4 4 5 5 5 5 4 1 2 2 2 4 6 7 7 7 8 9 10 12 13 13 15 15 16 16 16 15 14 13 13 10 9 8 7 5 3 1 3 6 6 6 6 6 5 6 7 8 8 9 10 9 7 6 1 4 6 6 5 6 7
5 4 4 3 3 1 3 7 7 8 10 11 12 11 10 12 11 9 9 10 10 9 5 1 1 3 3 5 6 5 6 3 2 3 3 3 2 4 6 7 5 5 7 10 11 11 12 13 13 14 15 17 17 16 15 11 11 12 10 8 9 8 5 5 1 4 6 7 8 10 8 7 6 8 9 10 12 13 10 6 6 7 7 5 5 7 7
6 6 5 4 2 0 3 4 5 7 8 9 11 11 11 11 11 10 11 12 10 9 2 1 0 1 3 3 2 4 5 1 2 3 3 2 3 5 7 8 7 7 8 9 10 11 11 13 13 14 16 16 16 15 16 13 9 11 9 8 8 13 17 14 9 5 4 6 7 8 8 9 9 9 11 9 9 9 11 10 7 4 6 5 5 6 5
2 7 5 2 2 0 1 2 3 6 8 8 9 12 13 12 12 12 11 10 10 9 7 3 1 1 1 2 3 5 2 2 1 3 2 3 5 6 7 9 9 7 6 8 9 9 10 11 13 15 15 15 15 15 15 14 10 9 9 9 9 8 11 15 9 9 5 5 6 8 9 11 10 10 7 2 7 9 9 10 9 4 3 6 7 6 4
1 1 2 0 1 0 0 1 3 5 6 8 7 7 8 9 9 10 10 10 9 7 8 4 2 2 2 3 4 3 3 2 2 5 4 5 7 8 8 7 8 7 6 8 9 9 9 10 11 12 14 15 15 14 15 15 10 8 8 9 8 9 9 12 13 10 7 6 7 8 9 10 9 8 9 7 6 7 10 11 10 7 7 6 6 5 5
2 1 1 2 2 2 2 1 2 2 3 5 6 6 8 8 9 9 10 10 9 10 8 6 3 3 4 5 5 3 1 3 5 5 5 7 8 7 7 8 7 7 6 7 9 9 9 9 10 11 12 13 14 14 14 15 10 8 9 9 9 9 10 9 12 11 9 6 5 12 11 11 10 8 7 7 8 8 9 10 10 9 9 7 6 5 8
2 2 3 4 3 3 1 0 2 2 3 4 6 6 6 8 9 10 12 11 11 10 9 8 9 7 7 7 7 7 8 7 5 5 6 7 7 8 7 8 8 7 7 7 10 9 10 10 10 10 11 12 13 14 14 15 12 9 10 9 9 9 9 9 11 12 8 6 6 10 12 13 12 12 10 11 10 7 7 9 10 10 10 10 9 10 12
4 3 5 4 3 2 1 0 0 1 1 2 3 5 7 8 10 10 12 12 11 10 10 8 8 8 10 10 10 10 9 8 6 6 7 8 7 7 7 7 9 8 8 8 10 10 11 9 16 19 11 10 11 13 13 14 11 11 9 9 8 8 8 10 10 10 7 6 11 11 12 15 16 14 13 11 11 9 10 10 10 10 10 10 9 11 10
2 4 4 3 3 3 4 3 1 0 1 2 2 4 6 8 8 8 9 9 10 11 10 9 8 9 9 8 8 8 8 8 7 6 7 6 6 7 8 8 9 9 9 9 10 10 10 10 17 20 12 9 10 11 13 21 10 9 8 9 8 8 7 8 8 8 8 11 12 11 11 12 12 12 11 11 11 10 10 11 11 11 10 10 10 10 10
2 3 3 3 2 3 3 3 3 2 2 2 3 3 4 5 7 8 8 8 10 10 10 9 9 7 7 8 9 10 9 9 9 7 6 7 7 8 9 9 8 8 8 8 9 9 8 13 18 12 9 9 9 9 13 21 19 11 8 8 8 8 8 8 8 9 9 10 10 10 10 10 10 11 11 11 11 11 11 11 11 10 10 10 11 11 11
3 2 3 2 2 3 2 3 3 3 3 2 2 3 4 5 5 6 7 8 9 9 9 9 9 9 9 9 9 9 9 9 9 9 8 8 8 8 9 8 8 8 6 7 8 8 9 11 8 7 8 9 10 9 12 16 16 10 9 9 8 8 9 8 8 8 9 9 11 10 9 9 10 10 10 10 11 12 13 13 11 10 11 10 11 11 10
3 2 2 3 4 2 2 2 3 3 2 3 3 3 2 4 5 6 7 8 8 9 9 9 10 10 10 9 7 8 8 9 9 9 9 7 6 6 6 8 10 9 9 13 8 7 12 17 10 7 7 8 9 8 9 13 12 8 8 8 9 9 8 8 8 8 8 9 11 12 9 9 9 9 9 10 11 11 10 11 11 10 11 11 11 11 11
3 3 3 3 3 2 2 2 2 3 3 3 3 3 3 3 3 5 7 7 8 8 9 9 9 10 10 9 9 7 6 7 9 9 8 7 7 6 8 8 8 8 9 9 8 9 12 11 8 8 7 8 8 10 8 12 9 7 7 8 8 9 8 8 8 9 8 9 9 9 9 8 9 10 9 10 10 9 10 10 10 10 10 11 10 10 10
3 4 3 3 3 3 2 2 2 3 4 4 4 3 4 5 4 5 4 5 6 6 7 9 12 10 8 9 9 9 7 6 6 8 9 9 8 7 7 8 7 8 14 12 11 11 9 9 7 8 8 7 9 16 14 9 8 7 7 8 8 8 8 8 9 9 9 8 9 9 8 8 9 9 10 11 10 11 10 10 10 10 10 10 10 10 10
4 3 3 2 3 3 3 3 3 4 3 3 2 3 3 4 4 4 4 4 5 6 7 7 8 9 9 9 9 9 9 8 6 5 7 8 9 8 7 6 6 9 15 10 10 9 10 9 8 7 14 12 11 16 14 9 8 8 8 8 9 9 8 8 8 8 8 8 8 8 8 8 8 9 9 9 9 9 11 11 10 10 10 10 9 9 10
6 4 3 3 3 3 3 3 3 3 2 1 1 2 3 3 4 4 4 5 6 6 6 6 7 7 8 8 8 7 7 8 8 8 5 5 7 9 8 8 7 11 16 9 8 9 10 10 11 16 20 18 17 15 9 8 8 8 9 9 9 9 9 9 8 8 9 9 8 8 8 9 8 9 9 9 9 9 10 10 10 10 10 10 10 9 9
4 3 3 3 3 4 3 3 3 3 2 1 2 3 2 3 4 3 4 5 6 6 6 6 6 6 6 6 7 7 7 7 8 7 7 7 8 8 8 11 10 10 12 14 9 9 9 11 16 22 19 21 17 15 8 8 8 9 9 9 8 9 9 11 10 9 9 9 10 9 8 9 8 8 8 9 10 9 9 9 10 10 11 11 10 9 9
3 3 3 4 4 3 3 3 3 3 2 2 3 3 3 3 4 4 4 6 6 5 5 6 6 6 5 5 4 4 5 6 7 7 7 6 7 6 8 10 9 12 16 15 9 9 9 20 22 20 21 20 19 12 9 9 9 8 8 8 9 9 8 8 9 9 9 9 9 9 8 9 9 9 10 9 9 10 11 12 10 10 10 11 10 9 8
6 3 3 4 3 4 5 5 2 3 3 2 2 2 2 2 2 4 6 7 6 6 5 6 6 6 6 6 6 5 4 4 5 4 5 5 7 8 10 13 13 15 13 9 10 10 11 13 17 20 19 20 17 10 10 10 9 8 9 9 9 8 9 9 9 9 9 10 10 11 13 11 9 9 9 9 10 10 9 9 9 9 9 10 10 10 9
7 6 4 5 6 7 7 3 0 1 1 2 2 3 2 1 2 3 4 7 7 6 6 5 5 5 5 6 5 5 5 4 5 5 3 4 5 5 6 6 10 14 13 12 14 16 23 22 22 20 20 18 11 10 10 10 10 10 9 7 7 8 8 8 8 9 9 10 10 9 9 9 10 10 10 10 10 9 9 10 10 9 9 9 10 10 10
4 4 5 7 7 6 5 2 0 2 2 1 1 1 3 2 2 3 5 7 8 6 5 5 5 5 5 5 5 5 4 4 4 4 3 4 4 5 6 9 14 14 10 8 8 9 16 18 18 19 19 15 9 9 9 9 10 10 10 10 9 8 8 7 8 8 8 8 9 9 9 10 10 10 11 11 10 10 10 10 10 9 9 9 10 9 9
6 8 7 2 1 4 3 3 2 1 0 1 1 1 3 3 4 4 5 6 5 5 4 4 3 3 3 3 3 3 3 2 2 2 3 3 4 4 6 6 8 12 12 8 8 8 12 18 17 16 12 9 10 10 9 9 9 9 9 10 10 9 10 10 9 10 9 9 9 9 10 10 10 12 11 9 9 9 9 9 10 12 15 10 9 9 9
7 5 6 5 2 3 2 1 1 2 1 2 2 2 4 6 4 4 4 5 4 5 5 5 3 2 2 2 1 0 1 0 4 6 4 5 6 7 8 6 7 8 8 8 7 7 7 7 8 9 10 9 8 9 9 9 9 10 10 9 9 8 9 10 9 9 8 8 8 9 9 8 8 8 8 8 9 8 9 9 8 8 8 8 8 7 7
7 6 6 4 3 3 2 1 0 1 1 1 1 2 6 5 4 4 5 8 5 3 3 4 4 2 0 1 2 2 4 5 3 4 5 6 6 5 7 9 5 7 7 7 7 7 7 8 10 12 11 8 8 8 10 13 10 9 9 10 10 10 10 9 8 8 8 9 9 9 9 9 8 8 8 8 8 8 9 8 8 8 8 8 8 8 8
Wind_Direction
282 275 276 285 293 290 289 293 299 301 312 311 309 321 315 310 264 275 317 316 326 313 303 317 19 14 31 31 19 29 26 19 7 36 47 42 50 74 63 38 300 198 179 176 181 184 188 187 184 182 183 187 192 195 198 193 186 184 180 183 188 190 190 194 196 195 193 194 196 196 195 195 196 196 196 196 193 193 195 198 201 198 192 191 190 191 190
283 282 278 283 290 293 288 284 290 296 297 296 297 294 293 292 284 286 293 291 291 295 297 31 337 26 25 24 21 31 30 23 28 41 47 49 52 50 53 46 44 43 27 7 343 207 198 190 184 181 182 188 193 194 196 193 190 184 180 185 187 189 191 192 191 190 191 192 194 194 194 196 198 196 195 195 192 193 194 197 199 197 193 190 191 192 191
296 305 309 301 285 284 286 289 286 284 291 294 287 288 289 288 281 275 284 301 297 270 342 62 307 19 30 22 29 29 30 24 26 43 46 44 45 43 45 57 54 48 51 45 59 52 46 31 7 332 260 208 196 195 191 189 190 186 182 184 187 189 190 188 186 187 189 192 192 194 195 196 197 197 196 195 194 192 193 194 197 197 192 191 192 192 193
294 295 297 298 294 287 282 282 284 287 279 280 285 268 279 279 289 317 318 304 295 357 25 351 18 24 35 40 34 27 24 19 20 30 34 36 36 36 32 34 44 35 23 41 53 60 49 57 77 73 51 12 327 224 194 193 191 185 184 185 188 189 186 184 185 186 188 190 193 195 193 195 196 198 197 197 197 193 192 193 195 195 194 193 191 190 192
282 290 290 288 292 289 272 264 275 276 271 266 276 282 279 272 281 289 287 288 279 320 13 32 17 16 15 43 37 25 18 15 15 21 25 27 27 27 31 25 34 39 14 1 38 55 54 56 96 88 69 53 71 335 318 247 188 189 188 188 187 187 184 184 187 186 186 189 193 194 195 194 195 196 198 198 198 196 195 191 190 195 198 190 192 190 190
296 300 297 311 312 277 264 298 277 270 263 261 256 271 275 251 264 279 326 334 8 2 36 58 38 38 32 39 47 38 25 9 8 12 17 16 14 16 18 18 24 35 25 344 355 22 61 105 120 124 119 153 203 183 229 309 269 196 192 188 187 187 183 185 186 187 188 189 192 194 192 193 193 196 199 200 199 198 194 190 192 195 198 194 190 191 191
295 325 318 296 266 264 287 283 294 305 318 322 328 331 345 13 344 15 39 22 9 340 343 10 13 40 49 41 39 35 26 16 10 7 7 8 5 5 6 2 5 9 5 357 352 0 -0 344 57 114 164 214 233 212 201 209 235 212 194 185 187 187 187 186 185 186 188 191 192 192 191 192 192 196 199 200 200 197 193 192 193 194 196 198 193 192 192
343 319 280 269 251 279 295 293 301 303 299 335 5 331 43 27 27 8 48 49 24 359 353 359 358 344 88 49 37 29 25 21 14 8 4 358 359 356 356 353 353 353 353 358 -0 356 338 349 4 106 269 261 220 227 222 214 219 211 194 189 188 187 188 187 188 187 187 190 191 191 192 192 194 196 198 199 199 197 195 193 195 195 199 199 196 192 191
217 219 250 264 312 307 288 292 295 305 353 352 7 313 32 28 23 7 22 36 24 13 352 345 332 318 345 60 22 17 14 16 16 12 360 354 350 349 346 348 344 345 347 350 345 336 333 330 325 319 297 271 255 227 227 223 209 201 197 195 190 190 191 188 189 187 186 188 190 192 192 193 196 196 196 198 198 195 198 194 191 195 197 198 197 196 192
186 239 262 269 294 268 267 258 302 329 341 350 319 290 225 22 11 8 17 28 24 11 356 351 339 317 39 39 13 6 7 9 3 9 5 352 346 344 343 342 341 345 343 336 330 324 318 310 301 302 298 295 291 287 261 250 233 211 200 202 194 191 193 190 189 187 186 187 189 191 192 197 196 195 195 196 197 193 197 196 194 195 194 197 197 198 198
320 261 245 236 243 250 284 313 326 332 330 329 329 306 232 27 357 15 17 32 22 14 6 358 0 24 47 2 359 2 14 6 6 356 358 353 346 340 341 341 341 338 332 325 318 316 319 315 318 316 313 304 291 278 277 251 232 228 212 207 198 194 195 189 186 185 186 188 191 191 195 198 195 194 194 194 194 194 199 200 198 190 192 196 198 199 202
220 233 237 248 230 268 13 338 335 322 328 325 331 298 242 360 349 11 17 32 25 8 12 9 35 38 31 345 333 3 18 9 7 2 350 349 347 342 340 339 337 329 325 326 329 330 323 319 318 313 309 304 293 280 267 264 243 227 223 213 205 192 184 185 186 187 188 189 191 193 196 196 196 197 192 191 194 196 198 199 198 193 190 194 197 200 200
251 240 250 263 265 301 19 341 331 322 318 316 300 253 324 352 322 3 6 36 32 6 5 11 30 18 347 333 328 22 10 7 4 0 353 345 342 339 338 336 335 334 332 327 324 319 313 309 305 301 298 293 285 276 265 257 253 241 227 220 203 182 182 186 189 190 190 189 190 194 193 194 195 195 193 195 193 195 197 197 198 198 193 194 198 200 200
242 245 248 245 273 79 342 349 324 313 307 246 247 344 266 268 312 3 3 22 43 21 8 1 7 340 330 344 7 30 17 2 358 350 347 343 340 337 333 332 334 334 330 325 319 318 317 312 306 301 300 294 283 277 267 256 248 243 233 211 197 184 181 187 189 189 190 189 190 190 189 189 192 198 198 195 195 195 195 196 198 200 197 193 197 199 200
195 184 230 252 248 85 9 341 340 26 353 311 317 305 305 312 303 3 356 356 17 20 10 353 346 338 330 343 13 40 18 354 352 351 349 348 341 338 337 336 335 333 328 325 323 321 319 315 312 312 308 297 286 277 267 259 249 243 223 202 194 185 182 185 188 189 189 186 188 189 190 191 193 197 194 196 196 194 195 197 198 199 199 196 196 198 200
289 281 237 230 104 317 359 25 312 319 293 305 312 318 307 318 318 354 338 342 354 352 1 356 339 338 333 338 356 39 16 353 346 347 348 343 340 337 335 333 332 334 327 324 324 323 320 315 311 307 301 299 295 284 271 260 247 232 209 198 192 186 184 185 187 189 189 188 187 189 188 188 192 194 195 197 195 195 196 196 197 199 200 197 196 197 199
195 267 294 310 323 339 346 310 260 253 294 321 332 322 311 310 318 326 317 315 319 337 335 333 341 330 337 332 343 41 0 347 348 349 345 339 336 335 335 335 330 329 328 329 328 325 323 319 315 310 303 299 299 295 285 266 243 217 203 195 189 189 187 186 187 188 188 187 188 189 187 186 190 193 195 193 196 197 195 198 199 200 201 197 197 197 199
262 264 257 284 357 339 328 313 308 314 322 327 348 333 315 311 313 321 312 310 315 310 322 324 322 320 329 329 341 25 357 349 342 346 344 342 335 333 340 340 339 331 328 332 331 330 326 320 317 318 316 314 309 305 301 273 232 206 197 193 192 190 188 187 187 186 186 189 188 189 188 188 191 192 194 195 198 196 197 200 201 200 200 199 202 201 202
314 278 120 40 347 316 302 299 321 331 219 323 339 323 302 305 316 313 315 310 308 309 300 284 278 299 322 325 325 332 340 356 349 347 349 344 337 334 336 335 336 330 336 336 336 334 327 323 326 326 320 318 319 317 316 287 224 201 193 192 193 192 188 185 186 185 185 189 189 190 191 190 191 192 195 196 198 199 199 201 201 201 199 200 204 206 207
255 267 296 359 334 317 284 6 350 340 340 344 333 314 306 311 306 302 299 300 296 296 293 299 311 300 303 305 319 304 44 1 347 348 342 343 337 332 331 335 341 337 338 341 340 337 329 328 330 323 317 321 321 324 319 323 266 198 195 193 191 193 188 185 185 186 188 187 184 188 192 193 194 195 196 198 200 201 199 198 198 199 199 200 203 204 207
283 278 303 356 325 298 349 345 330 323 326 326 317 320 316 304 298 303 308 303 302 298 289 298 301 305 303 304 309 319 146 123 351 340 337 339 332 324 340 336 341 345 334 340 342 341 336 336 331 323 321 321 325 324 323 323 335 292 206 193 196 192 189 186 184 183 185 184 188 190 193 195 203 195 197 203 207 209 207 204 202 198 199 201 203 204 203
280 309 347 354 333 315 313 313 315 320 321 313 309 307 302 303 302 307 308 304 300 300 300 296 297 295 303 307 315 322 328 51 52 345 345 336 331 332 343 333 339 344 340 345 343 344 338 334 330 327 325 326 323 324 322 326 332 343 333 245 199 194 192 188 184 183 185 185 188 189 191 196 187 98 33 52 28 208 209 208 211 215 204 209 203 196 201
267 318 320 304 278 280 279 293 306 308 310 306 302 302 301 300 302 302 298 298 294 289 292 284 277 286 291 293 303 326 343 337 333 324 344 342 337 338 343 344 351 352 344 347 342 345 340 333 331 327 324 324 325 323 325 323 333 334 341 346 308 226 193 190 188 184 182 183 183 191 201 199 177 169 146 59 45 36 7 315 210 205 209 207 193 196 196
264 261 272 282 276 279 294 300 296 294 294 298 302 303 302 295 294 296 295 291 291 290 290 291 278 273 273 283 304 316 327 323 320 332 351 356 349 340 342 344 349 355 357 349 345 342 336 335 332 328 321 327 327 328 326 331 332 330 349 2 19 16 17 48 68 76 64 54 7 307 215 190 169 172 172 168 111 29 28 23 71 123 146 199 206 193 195
225 228 263 265 276 279 289 293 293 294 306 309 303 299 299 297 293 290 286 286 282 282 280 277 276 265 275 294 297 302 306 313 321 351 349 357 358 352 343 344 349 354 358 347 339 336 336 333 334 328 325 327 333 335 329 336 339 340 351 25 51 42 57 18 18 349 156 154 155 162 116 30 329 246 184 181 173 134 42 37 63 86 84 76 79 225 206
236 247 262 272 263 279 293 301 300 318 319 314 306 301 299 298 295 295 293 284 275 272 269 268 269 265 264 278 298 307 306 300 306 333 335 355 3 359 347 340 338 341 358 348 337 336 338 337 331 328 328 329 338 338 330 336 354 349 355 20 78 73 61 96 153 174 257 253 186 175 150 142 151 207 303 286 189 145 127 125 79 54 53 44 38 68 67
231 233 272 275 278 315 329 335 316 319 318 317 315 309 305 297 295 290 284 277 271 263 258 257 249 259 272 284 290 281 272 269 288 310 355 29 5 354 336 333 330 344 351 345 335 339 347 340 332 328 331 335 335 341 342 343 356 1 4 4 6 110 160 170 164 177 167 177 193 159 158 152 148 148 156 213 298 205 163 165 171 153 141 55 36 47 77
214 219 227 174 323 333 331 327 319 317 325 329 327 319 313 309 307 311 305 304 297 274 247 226 222 236 259 269 280 283 287 297 310 309 71 55 8 346 331 329 331 346 347 341 340 343 348 343 332 328 334 338 338 340 345 348 352 3 4 4 3 2 333 183 154 140 147 133 139 159 169 155 147 145 137 136 141 270 297 247 156 134 87 42 67 71 75
207 198 204 235 242 268 300 322 327 338 336 334 333 327 331 335 331 329 324 318 309 297 254 214 203 217 239 262 264 264 269 268 252 118 67 45 18 348 339 330 329 346 341 342 354 349 347 346 334 332 338 341 340 341 343 357 355 354 3 6 8 352 323 300 162 146 128 140 147 155 151 138 137 140 151 156 160 160 185 240 181 127 127 150 146 98 71
182 187 201 223 211 239 359 354 344 338 341 337 340 338 339 335 337 335 326 321 318 299 262 229 192 231 225 249 261 267 265 275 67 59 64 58 12 357 348 337 333 355 356 354 353 354 346 343 339 335 340 339 338 340 344 352 3 348 351 7 26 16 349 343 61 129 148 156 155 155 153 148 137 139 146 157 174 174 163 178 188 153 149 159 143 131 122
164 180 194 196 151 150 33 351 342 343 341 344 348 343 341 339 339 338 337 330 327 315 317 41 334 281 248 254 286 309 300 78 86 79 59 28 22 11 6 351 358 19 8 354 340 354 349 344 341 342 341 335 336 339 349 348 4 353 347 356 17 17 20 24 21 31 79 111 119 116 124 137 140 142 146 164 175 152 150 153 154 168 150 130 105 101 101
167 178 177 155 134 123 46 349 356 357 346 340 354 1 346 342 345 340 330 329 322 324 307 276 288 23 350 319 319 312 334 45 98 81 69 48 31 22 16 6 356 28 25 4 348 347 352 348 345 341 335 332 337 344 352 347 352 359 352 2 12 12 16 24 32 21 15 68 88 108 123 130 131 137 126 149 152 140 133 128 133 165 131 112 109 109 125
239 213 104 34 89 101 63 344 344 360 352 346 354 350 340 332 332 337 338 333 323 333 341 315 315 350 327 344 334 326 339 326 76 70 57 48 40 29 14 8 5 12 26 11 355 351 348 348 339 339 337 337 340 347 354 347 340 355 352 8 13 16 23 24 25 27 22 52 79 94 107 115 123 128 125 126 122 131 136 132 133 130 104 95 96 98 98
150 127 130 139 159 194 242 271 300 332 351 350 352 348 344 338 342 342 344 340 345 357 345 350 22 22 29 25 6 350 51 122 72 63 49 53 44 33 24 11 7 3 6 7 3 0 350 341 339 345 342 343 342 348 353 348 341 357 359 11 19 25 29 29 28 27 2 356 50 81 80 79 77 70 77 91 98 105 115 115 114 111 105 92 78 69 76
131 126 104 111 146 161 153 200 280 304 340 9 1 359 352 348 351 350 354 0 2 354 338 14 36 38 45 42 32 23 28 45 62 60 56 49 47 31 22 17 11 6 -0 9 5 357 349 336 344 352 350 352 351 349 352 349 343 351 4 8 17 34 33 28 40 41 358 332 29 74 82 76 76 76 74 78 72 66 72 81 88 95 95 93 86 81 75
153 150 135 140 157 149 126 209 227 320 342 354 18 7 358 357 357 357 359 360 351 359 359 18 36 37 46 44 37 28 23 16 25 53 58 51 44 36 26 21 11 3 7 3 4 353 346 341 2 5 1 358 358 350 349 351 346 350 3 11 13 22 32 41 42 52 360 356 52 52 66 80 83 73 70 76 76 71 74 74 71 70 76 79 83 81 81
142 128 129 159 176 157 163 186 181 167 27 16 31 19 18 5 1 356 355 357 3 6 3 8 25 40 46 45 46 37 27 20 20 36 58 53 48 43 33 25 13 11 11 9 358 348 344 352 7 8 3 358 357 353 350 355 355 355 2 16 18 18 30 48 52 52 40 35 40 45 59 67 67 74 75 76 77 80 79 76 72 72 72 74 74 76 75
121 121 148 135 113 120 149 177 177 146 108 61 46 44 39 21 6 360 357 3 9 7 6 16 21 29 47 46 44 41 31 21 20 27 43 53 48 49 38 24 14 3 12 12 353 346 343 4 8 5 356 1 1 355 356 358 3 3 3 15 24 23 26 35 42 56 53 54 47 44 40 53 69 75 77 75 78 76 75 75 76 77 75 74 75 74 74
143 154 118 106 91 102 94 54 37 107 125 94 69 75 50 35 20 4 9 13 11 14 14 17 25 32 31 41 43 38 35 27 23 23 32 35 45 48 43 27 12 4 353 6 4 352 359 6 3 0 2 359 1 6 360 5 9 7 8 15 20 35 30 29 30 43 52 65 71 56 45 52 63 67 69 74 79 79 77 78 77 77 78 77 74 72 71
140 112 85 94 102 91 77 66 52 43 87 112 104 75 66 50 27 22 17 18 14 14 18 20 32 35 28 30 37 42 36 32 29 28 24 24 36 44 48 31 16 3 9 17 12 1 2 4 4 9 5 4 7 7 6 12 13 10 10 22 24 29 32 37 31 35 42 44 63 72 65 56 56 60 66 69 67 71 77 80 79 76 78 77 75 73 72
131 129 119 114 106 92 70 67 74 63 45 64 82 102 99 79 53 36 29 27 16 14 21 29 33 34 29 28 26 22 29 42 40 34 24 20 26 35 40 33 12 8 12 20 13 6 1 1 9 21 15 16 12 25 15 12 10 7 17 28 31 33 33 31 39 39 39 44 46 56 68 69 68 70 64 63 66 67 66 71 76 78 80 82 82 83 80
130 129 122 99 77 84 90 90 81 77 62 42 45 68 84 86 79 66 52 37 29 22 29 31 40 39 34 31 29 23 20 34 51 50 39 32 25 20 35 33 14 14 26 26 17 10 1 355 6 29 33 28 31 33 32 22 14 14 22 28 32 34 37 39 37 36 40 45 49 54 56 63 66 71 76 80 77 77 73 70 69 69 71 73 80 83 87
134 133 125 121 121 104 90 68 65 71 60 32 39 63 71 88 87 79 64 54 50 44 37 27 25 31 33 33 32 26 18 11 19 39 53 43 31 24 31 29 16 27 32 29 23 14 11 3 16 31 41 44 42 42 39 32 26 28 29 32 36 37 37 39 42 43 43 45 49 55 57 62 64 68 68 72 77 83 90 86 79 75 78 78 75 73 78
140 144 150 136 148 132 102 81 79 81 79 47 15 87 87 81 84 83 73 68 61 56 49 38 35 34 31 29 32 32 21 18 20 10 18 39 39 30 24 30 21 29 31 27 20 20 17 16 20 29 34 44 51 49 46 41 39 35 37 39 39 42 41 41 42 46 49 49 45 45 52 58 62 66 69 71 74 74 77 84 88 86 85 81 81 80 78
98 97 103 107 108 108 125 126 107 87 85 80 38 42 78 100 97 91 84 74 66 62 60 57 50 40 31 26 35 37 41 38 32 18 18 27 34 32 24 35 34 35 33 29 24 24 24 26 27 30 29 25 32 45 53 48 45 47 45 43 43 46 47 50 49 47 49 51 53 51 48 48 49 55 60 67 72 71 72 78 83 89 90 88 84 84 85
101 98 98 112 97 84 94 110 113 117 95 60 47 30 30 66 97 95 81 80 73 63 58 56 55 48 41 32 17 23 40 53 50 43 40 29 35 29 33 40 40 42 40 37 33 29 28 35 33 32 31 33 31 27 28 41 51 53 50 50 50 47 47 49 49 49 51 53 56 57 56 58 61 62 64 64 69 74 78 80 80 77 78 83 85 84 79
118 115 124 102 66 61 52 30 33 103 101 99 74 80 48 33 55 106 105 95 87 77 64 56 50 51 49 46 37 25 25 40 54 46 57 52 49 49 46 47 48 46 45 45 42 39 40 41 38 36 37 37 33 28 32 33 34 45 60 59 54 62 63 58 57 58 57 57 59 62 63 60 56 58 62 62 65 66 62 64 65 68 71 76 78 76 73
140 139 124 112 102 102 106 120 317 102 150 145 171 143 127 83 49 59 104 109 99 85 72 63 56 45 43 45 46 43 30 16 57 41 15 55 61 52 49 50 48 49 48 45 45 43 42 42 41 39 37 35 34 34 34 34 37 41 41 50 65 67 63 62 64 66 69 70 68 66 65 61 61 63 64 65 65 63 65 67 66 63 63 66 68 73 79
111 106 86 94 121 119 132 149 191 110 86 42 26 40 127 136 108 64 65 82 85 80 70 65 61 56 50 50 52 34 30 31 46 59 12 21 48 69 60 52 49 47 45 46 40 40 43 43 44 43 38 36 34 33 32 32 35 35 35 36 38 41 51 61 61 60 63 67 72 69 68 72 72 71 71 69 68 68 68 67 65 64 66 69 69 67 68
73 72 82 81 133 119 130 136 152 254 199 150 260 341 45 74 60 46 68 94 94 99 101 87 70 60 62 55 31 23 14 27 39 55 43 27 46 62 61 64 61 56 53 49 46 41 41 44 45 45 44 40 38 36 34 35 34 35 36 34 34 37 40 49 66 70 72 70 68 71 73 76 78 79 79 78 77 76 75 74 75 75 73 73 73 71 69
90 98 104 107 94 111 129 144 174 217 244 122 144 117 98 83 72 52 39 71 81 83 90 85 67 42 24 51 52 93 259 268 71 64 60 47 42 50 59 66 69 69 60 54 47 44 42 42 42 44 44 45 44 47 45 39 38 41 41 38 37 36 41 42 44 46 49 56 62 67 71 74 74 75 75 76 76 75 74 73 72 70 67 69 68 70 70
128 119 106 104 99 125 182 233 216 3 100 115 46 80 86 86 78 69 65 73 72 63 79 94 97 114 167 104 90 73 63 63 57 47 44 50 45 32 37 48 54 70 69 58 50 48 44 43 48 52 52 48 46 47 49 49 48 48 45 45 47 47 47 45 46 51 54 56 59 60 58 59 61 66 69 71 73 71 70 70 71 71 72 72 71 71 72